Preview of NWS' New Version of Forecast
This preview is not operational and should not be used for support decisions.

Regional Weather Roundup (RWR)

Issued by National Weather Service (NWS)

                            
000
ASUS46 KPQR 170310
RWROR 

OREGON REGIONAL WEATHER ROUNDUP
NATIONAL WEATHER SERVICE PORTLAND OR
700 PM PST SAT FEB 16 2019

NOTE: "FAIR" INDICATES FEW OR NO CLOUDS BELOW 12,000 FEET WITH
NO SIGNIFICANT WEATHER AND/OR OBSTRUCTIONS TO VISIBILITY.

ORZ001>013-170400-
NORTHWEST OREGON

  
CITY           SKY/WX    TMP DP  RH WIND       PRES   REMARKS
ASTORIA        MOCLDY    36  35  96 S5        29.93R                  
TILLAMOOK      CLOUDY    36  34  93 CALM      29.97S                  
NEWPORT        CLOUDY    41  36  81 CALM      30.00                   
PORTLAND       LGT RAIN  39  36  89 E8        29.94S                  
VANCOUVER WA   LGT RAIN  40  37  89 E5        29.93S                  
SCAPPOOSE      CLOUDY    40  34  79 N3        29.93R                  
HILLSBORO      CLOUDY    40  34  79 SW6       29.93R                  
AURORA         CLOUDY    40  37  89 SW3       29.95S                  
MCMINNVILLE    CLOUDY    37  34  89 SW6       29.94S                  
SALEM          LGT RAIN  40  35  83 SW3       29.95R                  
CORVALLIS      CLOUDY    38  35  89 CALM      29.98S                  
EUGENE         MOCLDY    38  35  89 S7        29.98S                  
$$

ORZ021-028-170400-
SOUTHWEST OREGON

  
CITY           SKY/WX    TMP DP  RH WIND       PRES   REMARKS
NORTH BEND     CLOUDY    41  37  86 NE6       30.03S                  
BROOKINGS      LGT RAIN  39  37  92 NE3       30.05S                  
ROSEBURG       HVY RAIN  37  34  89 CALM      30.01S FOG              
SEXTON SUMMIT  SNOW      27  26  96 MISG      29.89S VSB 1/4          
GRANTS PASS    CLOUDY    37  34  87 CALM      30.03                   
MEDFORD        CLOUDY    37  31  78 SW6       29.99S                  
$$

ORZ014>016-041-170400-
COLUMBIA GORGE

  
CITY           SKY/WX    TMP DP  RH WIND       PRES   REMARKS
TROUTDALE      LGT RAIN  38  35  89 SE3       29.94S                  
HOOD RIVER     CLOUDY    36  32  87 CALM      29.89S                  
THE DALLES     CLOUDY    33  29  85 CALM      29.90R FOG              
$$

ORZ029>031-041-044-049-050-061>064-502-503-505>511-170400-
EASTERN OREGON

  
CITY           SKY/WX    TMP DP  RH WIND       PRES   REMARKS
MADRAS         NOT AVBL                                               
REDMOND        CLOUDY    34  22  61 NW10      29.82R WCI  26          
BEND           MOCLDY    34  19  55 CALM      29.82R                  
PRINEVILLE     CLOUDY    32  23  69 W8        29.82                   
KLAMATH FALLS  CLOUDY    29  21  72 W6        29.88R                  
LAKEVIEW       PTCLDY    21  16  81 SW7       29.84R                  
HERMISTON      PTCLDY    29  26  89 NE3       29.87S                  
PENDLETON      CLOUDY    30  27  88 SE5       29.83S                  
JOHN DAY       CLOUDY    31  28  87 CALM      29.78                   
MEACHAM        CLOUDY    29  25  85 CALM      29.74S                  
LA GRANDE      CLOUDY    31  27  85 W6        29.80R                  
BAKER CITY     CLOUDY    29  27  92 CALM      29.78R FOG              
BURNS          CLOUDY    29  22  75 SW5       29.78R                  
ROME             N/A     31  26  82 NE3       29.79R                  
ONTARIO        CLOUDY    38  31  76 N3        29.81S                  
$$